World > North America > United States > Texas > Pilot Point  

Pilot Point, TX Hourly Weather Updates

Feedback E-mail the Weather

Quick Clicks

Pilot Point, TX Weather Maps

°F °C°F °C
Pilot Point Weather Map
UTC Time: 6/22/2024, 07:31
Your Time:

Pilot Point, TX Regional Weather

Expires:202406220800;;451650
ASUS44 KFWD 220715
RWRTX 
NORTH TEXAS HOURLY WEATHER ROUNDUP
NATIONAL WEATHER SERVICE FORT WORTH TX
200 AM CDT SAT JUN 22 2024

NOTE: "FAIR" INDICATES FEW OR NO CLOUDS BELOW 12,000 FEET WITH NO
SIGNIFICANT WEATHER AND/OR OBSTRUCTIONS TO VISIBILITY.


TXZ091>094-102>105-117-120-121-131>134-220800-
NORTH CENTRAL TEXAS
  
CITY           SKY/WX    TMP DP  RH WIND       PRES   REMARKS
SHRMAN/DENISON FAIR      79  68  69 SE9       30.09F                  
GAINESVILLE    FAIR      75  70  84 CALM      30.10S                  
BOWIE          FAIR      74  68  80 S5        30.09F                  
BRIDGEPORT     FAIR      77  67  70 S3        30.10S                  
DECATUR        FAIR      78  65  64 CALM      30.09F                  
DENTON         FAIR      76  69  79 CALM      30.08F                  
MCKINNEY       FAIR      78  71  79 SE3       30.08F                  
BONHAM         FAIR      75  68  77 SE3       30.09F                  
GREENVILLE     FAIR      73  72  95 CALM      30.09S                  
ROCKWALL       FAIR      78  69  73 SE3       30.09S                  
TERRELL        FAIR      77  69  76 CALM      30.08                   
WAXAHACHIE     FAIR      75  70  85 CALM      30.10S                  
CLEBURNE         N/A     77  72  83 S6        30.10S                  
$$


SKY/WX - Weather  TMP - Temperature  DP - Dew Point  RH - Humidity
WIND - Wind Direction/Speed PRES - Barometric Pressure VSB - Visibility
WCI - Wind Chill Index E13G22 Wind - East Wind 13 mph/Gusts of 22 mph

Trending Headlines

Trending Entertainment Headlines

Pilot Point Radar Loop

Use the map search tool if you want to place a location marker on the radar map...

Pilot Point Quick Facts

National Two Day Weather Forecast


E-mail the Pilot Point Weather Forecast

Voice your opinion or tell us about page issues...